Other Public Products
Issued by NWS Grand Forks, ND

Home | Current Version | Previous Version | Graphics & Text | Print | Product List | Glossary On
Versions: 1 2 3 4 5 6 7 8 9 10 11 12 13 14 15 16 17 18 19 20 21 22 23 24 25 26 27 28 29 30 31 32 33 34 35 36 37 38 39 40 41 42 43 44 45 46 47 48 49 50
000
FPUS83 KFGF 310210
OPUFGF
PRAIRIE TO PINES WEATHER ROUNDUP
NATIONAL WEATHER SERVICE EASTERN NORTH DAKOTA/GRAND FORKS ND
900 PM CDT THU OCT 30 2014

 **SATELLITE DATA USED TO AUGMENT SKY COVER AT AUTOMATED STATIONS**
 *****  WEATHER ACROSS EASTERN NORTH DAKOTA  *****

CITY           SKY/WX    TMP DP  RH WIND       PRES   REMARKS
GRAND FORKS    CLEAR     24  19  81 N8        30.53R WCI  15
GRAND FORKS AF CLEAR     26  19  73 N8        30.54R WCI  18
GRAND CITY NWS   N/A     28 N/A N/A N9          N/A  WCI  20
BUXTON         NOT AVBL
DEVILS LAKE    CLEAR     27  14  59 NE9       30.52R WCI  17
FARGO          CLEAR     29  21  72 N10       30.49R WCI  20
WAHPETON ARPT  CLEAR     32  21  64 N16       30.47R WCI  21
$$

 *****  WEATHER ACROSS CENTRAL AND WESTERN NORTH DAKOTA  *****

CITY           SKY/WX    TMP DP  RH WIND       PRES   REMARKS
JAMESTOWN      NOT AVBL
BISMARCK       CLOUDY    32  22  66 NE7       30.55R
MINOT          CLEAR     22  17  81 NW7       30.54S WCI  13
MINOT AFB      CLEAR     18  16  93 NW5       30.54S WCI  11
GARRISON         N/A     26  22  84 CALM      30.54R
WILLISTON      CLOUDY    35  27  72 E12       30.51R
DICKINSON      CLOUDY    33  28  81 E9        30.47R
HETTINGER      CLOUDY    33  29  85 E9        30.49R
$$

 *****  OTHER OBSERVATIONS NORTHEAST NORTH DAKOTA  *****

CITY           SKY/WX    TMP DP  RH WIND       PRES   REMARKS
WALHALLA       FAIR      25  16  68 NW5       30.57R WCI  19
LANGDON        FAIR      23  16  74 N8        30.53R WCI  14
CAVALIER       FAIR      28  16  59 N9        30.56R WCI  20
GRAFTON        FAIR      27  16  63 N10G16    30.54S WCI  17
CANDO          FAIR      21  16  79 N5        30.55R WCI  15
FORT TOTTEN    NOT AVBL
ROLLA          FAIR      23  16  74 N8        30.55R WCI  14
RUGBY          FAIR      23  18  80 NE5       30.55R WCI  17
 ***** THE ABOVE OBSERVATIONS ARE NON NWS ARE NOT QUALITY
        CONTROLLED AND MAY MIS-REPORT RAIN FOR SNOW...
$$

 *****  OTHER OBSERVATIONS SOUTHEAST NORTH DAKOTA *****

CITY           SKY/WX    TMP DP  RH WIND       PRES   REMARKS
COOPERSTOWN    NOT AVBL
VALLEY CITY    FAIR      28  19  69 N10       30.51R WCI  19
OAKES            N/A     28  25  86 NW9       30.51R WCI  20
GWINNER        CLEAR     30  21  69 N8        30.51R WCI  23
SHEYENNE NWR     N/A     29  19  67 N7        29.95S WCI  22
BUFFALO        NOT AVBL
WYNDMERE         N/A     28  21  74 NW7         N/A  WCI  21
 ***** THE ABOVE OBSERVATIONS ARE NON NWS ARE NOT QUALITY
       CONTROLLED AND MAY MIS-REPORT RAIN FOR SNOW...
$$

  *****  WEATHER ACROSS NORTHERN MINNESOTA  *****

CITY           SKY/WX    TMP DP  RH WIND       PRES   REMARKS
FLAG ISLAND    PTCLDY    30  19  64 N28       30.47R WCI  16
WARROAD        CLEAR     28  19  69 N9        30.48R WCI  20
ROSEAU         CLEAR     27  19  74 N7        30.49R WCI  19
HALLOCK        CLEAR     28  19  69 N12       30.54R WCI  18
THF RVR FALLS  CLEAR     28  19  69 N12       30.48R WCI  18
HALSTAD          N/A     28  18  65 N14         N/A  WCI  17
FOSSTON        CLEAR     25  19  80 N13       30.45R WCI  13
BAUDETTE       MOCLDY    31  18  58 N20G25    30.43R WCI  19
WASKISH        CLOUDY    30  18  59 N9        30.42R WCI  22
CROOKSTON      CLEAR     28  19  69 N14       30.52R WCI  17
$$
  *****  WEATHER ACROSS CENTRAL AND WEST MINNESOTA  *****

CITY           SKY/WX    TMP DP  RH WIND       PRES   REMARKS
BEMIDJI        MOCLDY    29  16  57 N10       30.40R WCI  20
PARK RAPIDS    CLEAR     30  17  58 N18       30.38R WCI  18
WADENA         MOCLDY    28  19  69 N7        30.38R WCI  21
DETROIT LAKES  CLEAR     30  23  74 N12G22    30.43R WCI  21
MOORHEAD       CLEAR     30  25  80 N13       30.49R WCI  20
FERGUS FALLS   CLEAR     30  18  59 N10G18    30.45R WCI  21
ELBOW LAKE     FAIR      31  23  71 N12G20    30.42R WCI  22
MORRIS MN      NOT AVBL
STAPLES        MOCLDY    30  18  59 N12G20    30.37R WCI  21
WHEATON        PTCLDY    28  21  74 NW9       30.47S WCI  20
$$
  *****  WEATHER ELSEWHERE ACROSS MINNESOTA  *****

CITY           SKY/WX    TMP DP  RH WIND       PRES   REMARKS
DULUTH         MOCLDY    30  19  63 N22G35    30.23R WCI  17
INTRNTL FALLS  CLOUDY    29  19  66 N18G25    30.38R WCI  16
ELY            LGT SNOW  27  25  93 NW14G22   30.26R WCI  15
CLOQUET        MOCLDY    30  16  55 N17G29    30.27R WCI  18
BRAINERD       PTCLDY    31  13  47 N20G29    30.35R WCI  19
HIBBING        MOCLDY    29  18  63 N18G26    30.31R WCI  16
ALEXANDRIA     PTCLDY    33  19  56 N17       30.38R WCI  22
SAINT CLOUD    CLOUDY    37  18  46 N13       30.32R
MINNEAPOLIS    CLOUDY    41  23  48 NW17      30.25R
$$

  *****  WEATHER ACROSS SOUTH DAKOTA  *****

CITY           SKY/WX    TMP DP  RH WIND       PRES   REMARKS
SIOUX FALLS    CLOUDY    37  28  70 N17G28    30.39R
BROOKINGS      NOT AVBL
WATERTOWN      CLOUDY    30  20  66 N23G32    30.43R WCI  17
HURON          CLOUDY    36  26  67 N16G24    30.47R
SISSETON         N/A     29  24  82 N9        30.46R WCI  20
ABERDEEN       MOCLDY    31  21  66 N9        30.51R WCI  23
MITCHELL       CLOUDY    38  29  70 N18G25    30.46R
PIERRE         CLOUDY    36  29  75 NE15      30.49R
MOBRIDGE       CLOUDY    34  26  72 NE15      30.50R WCI  24
RAPID CITY     CLEAR     29  27  92 E5        30.45R WCI  24
$$

  *****  SOME WEATHER IN NEARBY STATES *****

CITY           SKY/WX    TMP DP  RH WIND       PRES   REMARKS
GLASGOW MT     CLOUDY    35  29  78 SE20      30.39S WCI  24
GREAT FALLS MT MOCLDY    47  33  58 E8        30.09F
CHEYENNE WY    CLEAR     44  26  49 CALM      30.40R
SCOTTSBLUFF NE CLEAR     46  34  62 E13       30.38R
OMAHA NE       CLOUDY    50  40  68 N21G30    30.25R
DES MOINES IA  CLOUDY    55  37  50 N17G28    30.16R
DAVENPORT IA   CLOUDY    47  37  68 CALM      30.09S
CHICAGO IL     MOCLDY    46  36  68 W6        30.04F
EAU CLAIRE WI  CLOUDY    42  29  59 NW14G23   30.15R
LA CROSSE WI   CLOUDY    46  34  62 N23G30    30.13R
$$

  *****  SOME NATIONAL WEATHER *****

CITY           SKY/WX    TMP DP  RH WIND       PRES   REMARKS
LA GUARDIA NY  CLEAR     50  36  58 NW13      30.01S
RALEIGH NC     CLEAR     48  43  82 NE3       29.99S
ATLANTA GA     CLEAR     53  40  61 NW6       29.98F
NEW ORLEANS LA CLEAR     58  48  69 NW5       30.05R
OKLAHOMA CITY  CLEAR     64  36  35 N9        30.17R
ALBUQUERQUE NM CLEAR     64  22  20 E12       30.29R
SALT LAKE CITY PTCLDY    52  43  71 CALM      30.12F
LOS ANGELES CA CLOUDY    67  61  81 W7        29.94F
BOISE ID       MOCLDY    57  41  55 CALM      29.93F
SEATTLE WA     LGT RAIN  57  54  89 SE8       29.77R
$$

*** WEATHER ACROSS MANITOBA...SASKATCHEWAN AND ONTARIO ***
                ***ONTARIO***

CITY           SKY/WX    TMP DP  RH WIND       PRES   REMARKS
GERALDTON      LGT SNOW  27  25  93 N12       30.17R DRFTSNOWWCI  16
THUNDER BAY    CLOUDY    32  25  74 N8G20     30.20R WCI  25
SIOUX LOOKOUT  FLURRIES  25  19  80 N12G21    30.38R WCI  14
TORONTO        MOCLDY    43  34  70 SW3       30.03F
BIG TROUT LK   CLOUDY    27  23  86 NW10G17   30.39R WCI  17
PICKLE LAKE    FLURRIES  25  21  86 N8G20     30.34R WCI  16
DRYDEN         CLOUDY    27  19  74 N9G20     30.39R WCI  17
KENORA         FLURRIES  27  18  69 N9G21     30.46R WCI  17
$$
                *** MANITOBA***

CITY           SKY/WX    TMP DP  RH WIND       PRES   REMARKS
BRANDON        CLEAR     19  14  79 NE8       30.58R WCI   9
DAUPHIN        CLEAR     23  21  93 SE2       30.59S
ISLAND LAKE    PTCLDY    25  18  74 NW8       30.52S WCI  16
PILOT MOUND      N/A     21  14  73 N7          N/A  WCI  13
THE PAS        CLEAR     23  18  80 SE6       30.53F WCI  16
THOMPSON       CLEAR     12  10  92 CALM      30.51F
WINNIPEG       PTCLDY    25  16  68 N9        30.59R WCI  15
LYNN LAKE      CLEAR     18  16  93 S5        30.42F WCI  11
CHURCHILL      FLURRIES  18  16  93 W12       30.47F WCI   5
GILLAM         FLURRIES  19  14  79 N9        30.51S WCI   9
$$
                ***SASKATCHEWAN***

CITY           SKY/WX    TMP DP  RH WIND       PRES   REMARKS
ESTEVAN        PTCLDY    23  19  86 SE7       30.53S WCI  15
KINDERSLEY     CLOUDY    32  28  86 SE24G33   30.24F WCI  19
LLOYDMINSTER   CLOUDY    30  27  86 SE20G30   30.18F WCI  18
PRINCE ALBERT  CLEAR     27  21  80 S7        30.44S WCI  19
REGINA         PTCLDY    25  21  86 SE13      30.49S WCI  13



USA.gov is the U.S. government's official web portal to all federal, state and local government web resources and services.